Terminal Aerodrome Forecast
Issued by NWS Riverton, WY

Home | Current Version | Previous Version | Text Only | Print | Product List | Glossary On
Versions: 1 2 3 4 5 6 7 8 9 10 11 12 13
000
FTUS45 KRIW 242300
TAFRIW
TAF
KRIW 242322Z 2500/2524 04005KT P6SM SCT120 BKN200
     FM250600 VRB06KT P6SM VCSH SCT050 OVC090
     FM251100 02009KT 5SM -SN OVC030
     FM251200 35021G31KT 3/4SM -SN BLSN OVC007
     FM252200 35021G30KT 2SM -SN OVC020=

USA.gov is the U.S. government's official web portal to all federal, state and local government web resources and services.